This is the latest recevied weather packets stored in our database for station/object VO2AGO. If no packets are shown the sender has not sent any weather packets the latest 10 day(s).
| Time | Temp. | Humidity | Pressure | Rain* | Wind** | Luminosity | Snow |
|---|---|---|---|---|---|---|---|
| 1777461201 | 7.22° C | 92% | 101.4 hPa | 0 mm | 0 m/s | 835 W/m² | - |
| 1777460752 | 7.22° C | 90% | 101.5 hPa | 0 mm | 0 m/s | 787 W/m² | - |
| 1777460302 | 7.22° C | 94% | 101.4 hPa | 0 mm | 0 m/s | 783 W/m² | - |
| 1777459852 | 5.56° C | - | - | - | 0 m/s | 322 W/m² | - |
| 1777459402 | 5.56° C | - | - | - | 0 m/s | 325 W/m² | - |
| 1777458952 | 6.11° C | - | - | - | 0 m/s | 297 W/m² | - |
| 1777458502 | 5.56° C | - | - | - | 0 m/s | 273 W/m² | - |
| 1777458052 | 5° C | - | - | - | 0 m/s | 240 W/m² | - |
| 1777457602 | 5.56° C | - | - | - | 0 m/s | 224 W/m² | - |
| 1777457152 | 5° C | - | - | - | 0 m/s | 190 W/m² | - |
| 1777456703 | 5° C | - | - | - | 0 m/s | 162 W/m² | - |
| 1777456252 | 5° C | - | - | - | 0 m/s | 124 W/m² | - |
| 1777455801 | 4.44° C | - | - | - | 0 m/s | 102 W/m² | - |
| 1777455352 | 4.44° C | - | - | - | 0 m/s | 82 W/m² | - |
| 1777454902 | 4.44° C | - | - | - | 0 m/s | 60 W/m² | - |
| 1777454452 | 3.89° C | - | - | - | 0 m/s | 40 W/m² | - |
| 1777454006 | 4.44° C | - | - | - | 0 m/s | 28 W/m² | - |
| 1777453553 | 4.44° C | - | - | - | 0 m/s | 17 W/m² | - |
| 1777453102 | 3.89° C | - | - | - | 0 m/s | 10 W/m² | - |
| 1777452653 | 4.44° C | - | - | - | 0 m/s | 5 W/m² | - |
| 1777452201 | 4.44° C | - | - | - | 0 m/s | 2 W/m² | - |
| 1777451752 | 4.44° C | - | - | - | 0 m/s | 1 W/m² | - |
| 1777451301 | 5° C | - | - | - | 0 m/s | 0 W/m² | - |
| 1777450852 | 5° C | - | - | - | 0 m/s | 0 W/m² | - |
| 1777450403 | 5° C | - | - | - | 0 m/s | 0 W/m² | - |
* Rain latest hour (hover to see other rain measurements)
** Current wind speed in m/s (hover to see current wind gust speed)